Regional Weather Roundup
Issued by NWS

Home | Current Version | Previous Version | Graphics & Text | Print | Product List | Glossary On
Versions: 1 2 3 4 5 6 7 8 9 10 11 12 13 14 15 16 17 18 19 20 21 22 23 24 25 26 27 28 29 30 31 32 33 34 35 36 37 38 39 40 41 42 43 44 45 46 47 48 49 50
000
ASUS43 KBIS 291510
RWRND

NORTH DAKOTA REGIONAL WEATHER ROUNDUP
NATIONAL WEATHER SERVICE BISMARCK ND
1000 AM CDT SUN MAY 29 2016

NOTE: "FAIR" INDICATES FEW OR NO CLOUDS BELOW 12,000 FEET WITH NO
SIGNIFICANT WEATHER AND/OR OBSTRUCTIONS TO VISIBILITY.


NDZ001>003-009>011-017-291600-
NORTHWEST NORTH DAKOTA

CITY           SKY/WX    TMP DP  RH WIND       PRES   REMARKS
WILLISTON      SUNNY     62  45  53 W7        30.01F
MINOT          SUNNY     69  49  48 W15       29.97S
MINOT AFB      SUNNY     64  53  67 W13       29.96F
$$

NDZ018>021-031>035-040>046-291600-
SOUTHWEST NORTH DAKOTA

CITY           SKY/WX    TMP DP  RH WIND       PRES   REMARKS
BISMARCK       SUNNY     64  57  78 SW6       30.03S
DICKINSON      SUNNY     63  40  42 W8        30.04S
GARRISON         N/A     65  54  67 W12       30.01R
HETTINGER ARPT SUNNY     65  51  60 W8        30.08S
$$

NDZ004>008-012>016-024-026-027-054-291600-
NORTHEAST NORTH DAKOTA

CITY           SKY/WX    TMP DP  RH WIND       PRES   REMARKS
GRAND FORKS    PTSUNNY   64  56  75 NW12      29.93S
GRND FRKS AFB  CLOUDY    65  57  75 NW8       29.94R
DEVILS LAKE    MOSUNNY   64  55  72 W14       29.95F
$$

NDZ022-023-025-028>030-036>039-047>053-291600-
SOUTHEAST NORTH DAKOTA

CITY           SKY/WX    TMP DP  RH WIND       PRES   REMARKS
FARGO          CLOUDY    67  58  72 NW10      29.94R
JAMESTOWN      MOSUNNY   65  57  75 W12       29.98R
$$




USA.gov is the U.S. government's official web portal to all federal, state and local government web resources and services.